Time,TemperatureF,DewpointF,PressureIn,WindDirection,WindDirectionDegrees,WindSpeedMPH,WindSpeedGustMPH,Humidity,HourlyPrecipIn,Conditions,Clouds,dailyrainin,SoftwareType,DateUTC
2013-02-02 00:52:00,63.0,-99.9,30.22,NE,50,17.0,20.0,-999,-99.99,,,-99.99,,2013-02-02 05:52:00,
2013-02-02 01:52:00,62.0,-99.9,30.22,NE,50,15.0,17.0,-999,-99.99,,,-99.99,,2013-02-02 06:52:00,
2013-02-02 02:52:00,61.0,-99.9,30.21,NE,40,15.0,17.0,-999,-99.99,,,-99.99,,2013-02-02 07:52:00,
2013-02-02 03:53:00,61.0,-99.9,30.20,NE,50,15.0,17.0,-999,-99.99,,,-99.99,,2013-02-02 08:53:00,
2013-02-02 04:52:00,61.0,-99.9,30.19,NE,50,15.0,17.0,-999,-99.99,,,-99.99,,2013-02-02 09:52:00,
2013-02-02 05:52:00,60.0,-99.9,30.20,NE,50,15.0,17.0,-999,-99.99,,,-99.99,,2013-02-02 10:52:00,
2013-02-02 06:52:00,60.0,-99.9,30.21,NE,40,16.0,18.0,-999,-99.99,,,-99.99,,2013-02-02 11:52:00,
2013-02-02 07:53:00,60.0,-99.9,30.23,NE,40,18.0,22.0,-999,-99.99,,,-99.99,,2013-02-02 12:53:00,
2013-02-02 08:52:00,61.0,-99.9,30.24,NE,50,17.0,21.0,-999,-99.99,,,-99.99,,2013-02-02 13:52:00,
2013-02-02 09:52:00,62.0,-99.9,30.24,NE,40,18.0,21.0,-999,-99.99,,,-99.99,,2013-02-02 14:52:00,
2013-02-02 10:52:00,65.0,-99.9,30.24,NE,50,17.0,20.0,-999,-99.99,,,-99.99,,2013-02-02 15:52:00,
2013-02-02 11:52:00,67.0,-99.9,30.23,NE,50,14.0,17.0,-999,-99.99,,,-99.99,,2013-02-02 16:52:00,
2013-02-02 12:53:00,70.0,-99.9,30.21,ENE,60,10.0,13.0,-999,-99.99,,,-99.99,,2013-02-02 17:53:00,
2013-02-02 13:52:00,71.0,-99.9,30.18,East,90,11.0,14.0,-999,-99.99,,,-99.99,,2013-02-02 18:52:00,
2013-02-02 14:52:00,71.0,-99.9,30.15,ESE,110,13.0,16.0,-999,-99.99,,,-99.99,,2013-02-02 19:52:00,
2013-02-02 15:52:00,71.0,-99.9,30.14,ESE,120,14.0,16.0,-999,-99.99,,,-99.99,,2013-02-02 20:52:00,
2013-02-02 16:52:00,71.0,-99.9,30.14,ESE,110,10.0,13.0,-999,-99.99,,,-99.99,,2013-02-02 21:52:00,
2013-02-02 17:52:00,71.0,-99.9,30.13,ESE,120,11.0,15.0,-999,-99.99,,,-99.99,,2013-02-02 22:52:00,
2013-02-02 18:52:00,71.0,-99.9,30.13,East,100,13.0,14.0,-999,-99.99,,,-99.99,,2013-02-02 23:52:00,
2013-02-02 19:52:00,71.0,-99.9,30.13,East,100,13.0,15.0,-999,-99.99,,,-99.99,,2013-02-03 00:52:00,
2013-02-02 20:52:00,71.0,-99.9,30.14,East,90,11.0,14.0,-999,-99.99,,,-99.99,,2013-02-03 01:52:00,
2013-02-02 21:53:00,69.0,-99.9,30.16,East,80,9.0,10.0,-999,-99.99,,,-99.99,,2013-02-03 02:53:00,
2013-02-02 22:52:00,69.0,-99.9,30.16,ENE,70,9.0,10.0,-999,-99.99,,,-99.99,,2013-02-03 03:52:00,
2013-02-02 23:52:00,68.0,-99.9,30.15,ENE,60,8.0,9.0,-999,-99.99,,,-99.99,,2013-02-03 04:52:00,